When you browse on this site, cookies collect data to enhance your experience and personalize the content and advertising you see.
Visit our Privacy Policy to learn more. By continuing to use the site, you agree to this use of cookies and data.
  • En España
  • Lista de países
  • Para 7 días
  • Temperatura del agua
  • El tiempo en el mapa
  • Informadores
  • user-avatar
    Iniciar sesión

    Tiempo cada hora Kruhlyk

    Hoy, 14 Octubre, Lunes

    Tiempo Temperatura Precipitaciones Viento Presión Humedad
    00:00 +14°C° 0 mm 1 mps 747 mmHg 49%
    01:00 +13°C° 0 mm 1 mps 747 mmHg 51%
    02:00 +13°C° 0 mm 1 mps 747 mmHg 52%
    03:00 +13°C° 0 mm 1 mps 747 mmHg 54%
    04:00 +11°C° 0 mm 0 mps 747 mmHg 56%
    05:00 +11°C° 0 mm 0 mps 747 mmHg 58%
    06:00 +11°C° 0 mm 0 mps 747 mmHg 57%
    07:00 +12°C° 0 mm 0 mps 747 mmHg 56%
    08:00 +13°C° 0 mm 0 mps 747 mmHg 55%
    09:00 +16°C° 0 mm 1 mps 747 mmHg 49%
    10:00 +19°C° 0 mm 1 mps 747 mmHg 44%
    11:00 +20°C° 0 mm 2 mps 747 mmHg 39%
    12:00 +21°C° 0 mm 2 mps 746 mmHg 36%
    13:00 +23°C° 0 mm 2 mps 746 mmHg 34%
    14:00 +24°C° 0 mm 2 mps 746 mmHg 31%
    15:00 +23°C° 0 mm 2 mps 746 mmHg 35%
    16:00 +21°C° 0 mm 2 mps 745 mmHg 39%
    17:00 +20°C° 0 mm 1 mps 745 mmHg 43%
    18:00 +19°C° 0 mm 1 mps 745 mmHg 45%
    19:00 +18°C° 0 mm 1 mps 745 mmHg 47%
    20:00 +16°C° 0 mm 1 mps 746 mmHg 49%
    21:00 +16°C° 0 mm 1 mps 746 mmHg 50%
    22:00 +14°C° 0 mm 0 mps 746 mmHg 52%
    23:00 +14°C° 0 mm 0 mps 745 mmHg 53%

    Mañana, 15 Octubre, Martes

    Tiempo Temperatura Precipitaciones Viento Presión Humedad
    00:00 +13°C° 0 mm 0 mps 745 mmHg 54%
    01:00 +13°C° 0 mm 0 mps 746 mmHg 56%
    02:00 +13°C° 0 mm 0 mps 746 mmHg 57%
    03:00 +12°C° 0 mm 0 mps 745 mmHg 59%
    04:00 +12°C° 0 mm 0 mps 745 mmHg 61%
    05:00 +13°C° 0 mm 1 mps 745 mmHg 62%
    06:00 +13°C° 0 mm 1 mps 745 mmHg 62%
    07:00 +14°C° 0 mm 1 mps 745 mmHg 62%
    08:00 +14°C° 0 mm 1 mps 746 mmHg 62%
    09:00 +16°C° 0 mm 2 mps 745 mmHg 56%
    10:00 +19°C° 0 mm 2 mps 745 mmHg 50%
    11:00 +21°C° 0 mm 3 mps 745 mmHg 44%
    12:00 +21°C° 0 mm 3 mps 744 mmHg 42%
    13:00 +22°C° 0 mm 4 mps 744 mmHg 41%
    14:00 +23°C° 0 mm 4 mps 744 mmHg 39%
    15:00 +22°C° 0 mm 4 mps 744 mmHg 44%
    16:00 +21°C° 0 mm 3 mps 743 mmHg 49%
    17:00 +20°C° 0 mm 3 mps 743 mmHg 54%
    18:00 +19°C° 0 mm 3 mps 743 mmHg 59%
    19:00 +18°C° 0 mm 3 mps 743 mmHg 63%
    20:00 +17°C° 0 mm 3 mps 743 mmHg 68%
    21:00 +16°C° 0 mm 3 mps 743 mmHg 68%
    22:00 +14°C° 0 mm 3 mps 743 mmHg 68%
    23:00 +14°C° 0 mm 3 mps 743 mmHg 67%

    Pasado mañana, 16 Octubre, Miércoles

    Tiempo Temperatura Precipitaciones Viento Presión Humedad
    00:00 +13°C° 0 mm 3 mps 743 mmHg 68%
    01:00 +13°C° 0 mm 3 mps 744 mmHg 68%
    02:00 +12°C° 0 mm 3 mps 744 mmHg 68%
    03:00 +12°C° 0 mm 3 mps 744 mmHg 70%
    04:00 +11°C° 0 mm 3 mps 744 mmHg 72%
    05:00 +11°C° 0 mm 3 mps 744 mmHg 74%
    06:00 +11°C° 0 mm 3 mps 744 mmHg 73%
    07:00 +11°C° 0 mm 3 mps 744 mmHg 72%
    08:00 +12°C° 0 mm 3 mps 744 mmHg 71%
    09:00 +14°C° 0 mm 3 mps 744 mmHg 64%
    10:00 +17°C° 0 mm 3 mps 744 mmHg 57%
    11:00 +18°C° 0 mm 3 mps 744 mmHg 51%
    12:00 +20°C° 0 mm 3 mps 744 mmHg 47%
    13:00 +21°C° 0 mm 3 mps 744 mmHg 44%
    14:00 +22°C° 0 mm 3 mps 744 mmHg 41%
    15:00 +21°C° 0 mm 2 mps 744 mmHg 44%
    16:00 +20°C° 0 mm 2 mps 744 mmHg 48%
    17:00 +19°C° 0 mm 2 mps 743 mmHg 51%
    18:00 +18°C° 0 mm 2 mps 744 mmHg 54%
    19:00 +18°C° 0 mm 1 mps 744 mmHg 57%
    20:00 +16°C° 0 mm 1 mps 744 mmHg 60%
    21:00 +15°C° 0 mm 1 mps 744 mmHg 62%
    22:00 +15°C° 0 mm 1 mps 744 mmHg 64%
    23:00 +13°C° 0 mm 0 mps 744 mmHg 65%

    17 Octubre, Jueves

    Tiempo Temperatura Precipitaciones Viento Presión Humedad
    00:00 +13°C° 0 mm 0 mps 744 mmHg 66%
    01:00 +13°C° 0 mm 1 mps 745 mmHg 68%
    02:00 +13°C° 0 mm 1 mps 745 mmHg 69%
    03:00 +12°C° 0 mm 0 mps 745 mmHg 70%
    04:00 +11°C° 0 mm 0 mps 745 mmHg 71%
    05:00 +11°C° 0 mm 0 mps 744 mmHg 73%
    06:00 +11°C° 0 mm 0 mps 745 mmHg 70%
    07:00 +12°C° 0 mm 0 mps 745 mmHg 68%
    08:00 +13°C° 0 mm 0 mps 745 mmHg 66%
    09:00 +15°C° 0 mm 0 mps 745 mmHg 59%
    10:00 +17°C° 0 mm 0 mps 745 mmHg 53%
    11:00 +18°C° 0 mm 0 mps 745 mmHg 47%
    12:00 +19°C° 0 mm 0 mps 745 mmHg 44%
    13:00 +20°C° 0 mm 0 mps 745 mmHg 42%
    14:00 +23°C° 0 mm 1 mps 744 mmHg 39%
    15:00 +20°C° 0 mm 0 mps 744 mmHg 42%
    16:00 +19°C° 0 mm 0 mps 744 mmHg 45%
    17:00 +18°C° 0 mm 0 mps 744 mmHg 49%
    18:00 +17°C° 0 mm 0 mps 744 mmHg 51%
    19:00 +16°C° 0 mm 0 mps 745 mmHg 54%
    20:00 +15°C° 0 mm 0 mps 745 mmHg 57%
    21:00 +15°C° 0 mm 0 mps 745 mmHg 58%
    22:00 +14°C° 0 mm 0 mps 745 mmHg 60%
    23:00 +14°C° 0 mm 0 mps 745 mmHg 62%

    18 Octubre, Viernes

    Tiempo Temperatura Precipitaciones Viento Presión Humedad
    00:00 +13°C° 0 mm 0 mps 745 mmHg 63%
    01:00 +13°C° 0 mm 0 mps 745 mmHg 65%
    02:00 +13°C° 0 mm 1 mps 745 mmHg 67%
    03:00 +12°C° 0 mm 0 mps 745 mmHg 69%
    04:00 +12°C° 0 mm 0 mps 746 mmHg 71%
    05:00 +11°C° 0 mm 0 mps 746 mmHg 72%
    06:00 +12°C° 0 mm 0 mps 746 mmHg 70%
    07:00 +13°C° 0 mm 0 mps 746 mmHg 68%
    08:00 +13°C° 0 mm 0 mps 746 mmHg 67%
    09:00 +16°C° 0 mm 1 mps 746 mmHg 60%
    10:00 +19°C° 0 mm 1 mps 746 mmHg 53%
    11:00 +21°C° 0 mm 1 mps 746 mmHg 46%
    12:00 +21°C° 0 mm 2 mps 746 mmHg 43%
    13:00 +23°C° 0 mm 2 mps 746 mmHg 40%
    14:00 +24°C° 0 mm 2 mps 745 mmHg 38%
    15:00 +21°C° 0 mm 2 mps 745 mmHg 41%
    16:00 +20°C° 0 mm 2 mps 745 mmHg 43%
    17:00 +19°C° 0 mm 2 mps 745 mmHg 46%
    18:00 +18°C° 0 mm 2 mps 745 mmHg 49%
    19:00 +18°C° 0 mm 1 mps 745 mmHg 51%
    20:00 +16°C° 0 mm 1 mps 746 mmHg 54%
    21:00 +15°C° 0 mm 1 mps 746 mmHg 56%
    22:00 +15°C° 0 mm 1 mps 746 mmHg 57%
    23:00 +14°C° 0 mm 1 mps 746 mmHg 59%

    19 Octubre, Sábado

    Tiempo Temperatura Precipitaciones Viento Presión Humedad
    00:00 +14°C° 0 mm 1 mps 746 mmHg 61%
    01:00 +14°C° 0 mm 1 mps 746 mmHg 62%
    02:00 +13°C° 0 mm 2 mps 745 mmHg 64%
    03:00 +13°C° 0 mm 2 mps 745 mmHg 65%
    04:00 +12°C° 0 mm 2 mps 745 mmHg 66%
    05:00 +12°C° 0 mm 2 mps 745 mmHg 66%
    06:00 +13°C° 0 mm 2 mps 746 mmHg 65%
    07:00 +13°C° 0 mm 2 mps 746 mmHg 63%
    08:00 +13°C° 0 mm 2 mps 746 mmHg 62%
    09:00 +16°C° 0 mm 3 mps 746 mmHg 55%
    10:00 +18°C° 0 mm 4 mps 746 mmHg 48%
    11:00 +20°C° 0 mm 5 mps 746 mmHg 41%
    12:00 +21°C° 0 mm 5 mps 746 mmHg 39%
    13:00 +22°C° 0 mm 5 mps 745 mmHg 36%
    14:00 +23°C° 0 mm 6 mps 745 mmHg 34%
    15:00 +22°C° 0 mm 5 mps 745 mmHg 37%
    16:00 +20°C° 0 mm 4 mps 745 mmHg 40%
    17:00 +19°C° 0 mm 3 mps 745 mmHg 43%
    18:00 +18°C° 0 mm 3 mps 745 mmHg 46%
    19:00 +17°C° 0 mm 3 mps 745 mmHg 49%
    20:00 +16°C° 0 mm 3 mps 745 mmHg 52%
    21:00 +14°C° 0 mm 3 mps 745 mmHg 53%
    22:00 +14°C° 0 mm 3 mps 745 mmHg 55%
    23:00 +13°C° 0 mm 3 mps 746 mmHg 56%
    Mostrar más